{"data":{"norad_id":68015,"intl_designator":"2026-040A","name":"STARLINK-36335","alt_names":[],"object_type":"PAYLOAD","status":"ACTIVE","operator":null,"country":"US","launch_date":"2026-03-01","launch_site_code":"AFWTR","launch_vehicle":null,"mission":null,"orbit_class":"UNKNOWN","rcs_meters":null,"size_class":null,"mass_kg":null,"dimensions":null,"purposes":["comms"],"wikipedia_slug":null,"has_3d_model":false,"image_url":null,"decayed_at":null,"tle_current":{"epoch":"2026-05-25T03:12:20.805696Z","epoch_age_seconds":57345,"freshness":"FRESH","line1":"1 68015U 26040A   26145.13357414  .00016567  00000+0  51417-3 0  9993","line2":"2 68015  97.2848  94.0801 0001553  90.5403 269.6018 15.33455899 13173","mean_motion":15.33455899,"eccentricity":0.0001553,"inclination_deg":97.2848,"raan_deg":94.0801,"arg_perigee_deg":90.5403,"mean_anomaly_deg":269.6018,"bstar":0.00051417,"rev_number":1317,"period_min":93.9055372208,"perigee_km":464.4479284192,"apogee_km":466.57356540939,"semimajor_km":6843.6477469143,"source":"CELESTRAK","updated_at":"2026-05-25T13:38:21.803970Z"}}}